Location: ????????
(60.4333°N, 46.4710°E)
Time: 04:02:57
(UTC+00:00)

Meteor 1-5 Rocket - Pass Details

Date: 25 November 2020
Orbit: 788 x 916 km, 81.2° (Epoch: 19 January)

Event Time Altitude Azimuth Distance (km) Brightness Sun altitude
Rises 15:33:28 0° 342° (NNW) 3,570 7.7 -24.5°
Reaches altitude 10° 15:35:58 10° 343° (NNW) 2,624 6.9 -24.8°
Maximum altitude 15:42:00 89° 72° (ENE) 920 4.2 -25.5°
Enters shadow 15:44:50 33° 163° (SSE) 1,474 5.2 -25.9°
